FW1093 Weather Reports


time (UTC)temp
C
wind
direction
speed
KPH
gust
KPH
rain 1hr
cm
rain 24hr
cm
rain mn
cm
humidity
%
barometer
mb
20260904110316 20 276 0.0 0.0 0.00 1.85 1.85 97 1011.5
20260904105311 20 276 0.0 0.0 0.00 1.85 1.85 97 1011.5
20260904104329 20 276 0.0 0.0 0.00 1.85 1.85 97 1011.4
20260904103325 20 276 0.0 0.0 0.00 1.85 1.85 97 1011.3
20260904102334 20 276 0.0 0.0 0.00 1.85 1.85 97 1011.3
20260904101328 20 276 0.0 0.0 0.00 1.85 1.85 97 1011.2
20260904100318 20 276 0.0 0.0 0.00 1.85 1.85 97 1011.3
20260904095314 20 276 0.0 0.0 0.00 1.85 1.85 97 1011.1
20260904094335 20 276 0.0 1.6 0.00 1.85 1.85 98 1011.1
20260904093329 20 276 0.0 0.0 0.00 1.85 1.85 97 1010.8
20260904092323 20 276 0.0 1.6 0.05 1.85 1.85 97 1011.1
20260904091337 20 276 0.0 0.0 0.10 1.85 1.85 97 1011.0
20260904090350 20 276 0.0 0.0 0.20 1.85 1.85 97 1010.8
20260904085352 20 276 0.0 0.0 1.19 1.85 1.85 97 1010.7
20260904084325 20 276 0.0 0.0 1.80 1.85 1.85 97 1010.2
20260904083345 20 276 0.0 0.0 1.83 1.85 1.85 97 1010.2
20260904082315 20 276 0.0 0.0 1.80 1.80 1.80 97 1010.4
20260904081335 20 276 0.0 1.6 1.75 1.75 1.75 97 1010.9
20260904080331 20 37 1.6 9.7 1.57 1.57 1.57 97 1011.0
20260904075351 20 321 0.0 6.4 0.61 0.61 0.61 97 1011.4
20260904074326 21 308 0.0 0.0 0.05 0.05 0.05 97 1011.0
20260904073318 21 308 0.0 0.0 0.03 0.03 0.03 97 1010.9
20260904072337 21 308 0.0 0.0 0.00 0.00 0.00 97 1011.0
20260904071332 21 308 0.0 0.0 0.00 0.00 0.00 97 1010.9
20260904070334 21 308 0.0 0.0 0.00 0.00 0.00 97 1011.2
20260904065329 21 308 0.0 0.0 0.00 0.05 0.00 97 1011.2
20260904064321 21 308 0.0 0.0 0.00 0.05 0.00 97 1011.2
20260904063314 21 307 0.0 0.0 0.00 0.05 0.00 97 1011.5
20260904062335 21 309 0.0 0.0 0.00 0.05 0.00 97 1011.3
20260904061326 20 309 0.0 0.0 0.00 0.05 0.00 97 1011.4
20260904060320 20 309 0.0 0.0 0.00 0.05 0.00 97 1011.5
20260904055358 20 309 0.0 0.0 0.00 0.84 0.00 97 1011.7
20260904054328 20 309 0.0 0.0 0.00 0.84 0.00 97 1011.7
20260904053321 20 309 0.0 0.0 0.00 0.84 0.00 97 1011.8
20260904052334 20 309 0.0 0.0 0.00 0.84 0.00 97 1011.8
20260904051327 20 309 0.0 0.0 0.00 0.84 0.00 97 1012.0
20260904050323 20 309 0.0 0.0 0.00 0.84 0.00 97 1012.1
20260904045313 21 309 0.0 0.0 0.00 0.84 0.00 97 1012.1
20260904044326 21 309 0.0 0.0 0.00 0.84 0.00 97 1012.1
20260904043345 21 309 0.0 0.0 0.00 0.84 0.00 97 1012.3
20260904042343 21 309 0.0 0.0 0.00 0.84 0.00 97 1012.4
20260904041314 21 309 0.0 0.0 0.00 0.84 0.00 97 1012.5
20260904040355 21 309 0.0 0.0 0.00 0.84 0.00 97 1012.5
20260904035324 21 309 0.0 0.0 0.00 0.84 0.84 97 1012.6
20260904034315 21 309 0.0 0.0 0.00 0.84 0.84 97 1012.7
20260904033357 21 309 0.0 0.0 0.00 0.84 0.84 97 1012.5
20260904032334 21 309 0.0 0.0 0.00 0.84 0.84 97 1012.9
20260904031332 21 309 0.0 0.0 0.00 0.84 0.84 97 1013.0
20260904030326 21 309 0.0 0.0 0.00 0.84 0.84 96 1013.1
20260904025348 21 309 0.0 0.0 0.00 0.84 0.84 96 1013.1
20260904024349 21 309 0.0 0.0 0.00 0.84 0.84 96 1012.8
20260904023324 21 309 0.0 0.0 0.00 0.84 0.84 96 1013.2
20260904022320 21 309 0.0 0.0 0.00 0.84 0.84 96 1013.2
20260904021344 21 309 0.0 0.0 0.00 0.84 0.84 96 1013.2
20260904020345 21 309 0.0 0.0 0.00 0.84 0.84 96 1013.0
20260904015324 21 309 0.0 0.0 0.00 0.84 0.84 96 1013.2
20260904014323 21 309 0.0 0.0 0.00 0.84 0.84 96 1013.5
20260904013315 21 309 0.0 0.0 0.00 0.84 0.84 96 1013.6
20260904012335 21 309 0.0 0.0 0.00 0.84 0.84 96 1013.8
20260904011326 21 309 0.0 0.0 0.00 0.84 0.84 96 1013.7
20260904010349 21 309 0.0 0.0 0.00 0.84 0.84 95 1013.4
20260904005321 22 309 0.0 0.0 0.00 0.84 0.84 95 1013.3
20260904004340 22 309 0.0 0.0 0.00 0.84 0.84 95 1013.3
20260904003330 22 309 0.0 0.0 0.00 0.84 0.84 95 1013.3
20260904002322 22 309 0.0 0.0 0.00 0.84 0.84 95 1013.3
20260904001314 22 309 0.0 0.0 0.00 0.84 0.84 94 1013.5
20260904000335 22 309 0.0 0.0 0.00 0.84 0.84 94 1013.1
20260903235333 22 309 0.0 0.0 0.00 0.84 0.84 94 1012.9
20260903234332 22 309 0.0 1.6 0.00 0.84 0.84 93 1012.7
20260903233329 23 309 0.0 0.0 0.00 0.84 0.84 93 1012.7
20260903232322 23 309 0.0 0.0 0.00 0.84 0.84 92 1012.5
20260903231318 23 309 0.0 0.0 0.00 0.84 0.84 91 1012.6
20260903230337 24 309 0.0 0.0 0.00 0.84 0.84 91 1012.7
20260903225331 25 309 0.0 0.0 0.00 0.84 0.84 90 1012.5
20260903224324 25 309 0.0 0.0 0.00 0.84 0.84 89 1012.6
20260903223319 26 309 0.0 0.0 0.00 0.84 0.84 87 1012.6
20260903222321 26 309 0.0 0.0 0.00 0.84 0.84 86 1013.0
20260903221312 26 309 0.0 0.0 0.00 0.84 0.84 86 1013.0
20260903220330 26 309 0.0 0.0 0.00 0.84 0.84 86 1012.8
20260903215324 26 309 0.0 0.0 0.00 0.84 0.84 85 1012.8
20260903214338 26 309 0.0 0.0 0.00 0.84 0.84 87 1012.8
20260903213334 26 309 0.0 0.0 0.00 0.84 0.84 85 1012.9
20260903212331 26 309 0.0 0.0 0.00 0.84 0.84 82 1012.7
20260903211323 26 309 0.0 0.0 0.00 0.84 0.84 85 1012.7
20260903210335 25 309 0.0 0.0 0.00 0.84 0.84 87 1012.7
20260903205336 25 309 0.0 0.0 0.00 0.84 0.84 87 1013.1
20260903204336 25 309 0.0 0.0 0.00 0.84 0.84 86 1013.2
20260903203329 26 309 0.0 0.0 0.00 0.84 0.84 84 1013.2
20260903202320 26 309 0.0 0.0 0.00 0.84 0.84 82 1013.3
20260903201313 26 309 0.0 0.0 0.00 0.84 0.84 81 1013.1
20260903200331 26 306 0.0 0.0 0.00 0.84 0.84 80 1013.2
20260903195326 27 306 0.0 1.6 0.00 0.86 0.84 76 1013.1
20260903194321 26 29 0.0 3.2 0.00 0.86 0.84 78 1013.2
20260903193316 27 342 0.0 1.6 0.00 0.86 0.84 80 1013.4
20260903192337 27 304 0.0 0.0 0.00 0.86 0.84 78 1013.4
20260903191330 27 304 0.0 1.6 0.00 0.86 0.84 78 1013.4
20260903190325 27 289 0.0 1.6 0.00 0.86 0.84 77 1013.5
20260903185323 26 11 1.6 3.2 0.00 0.86 0.84 77 1013.6
20260903184337 26 297 0.0 4.8 0.00 0.86 0.84 80 1013.6
20260903183331 26 358 0.0 3.2 0.00 0.86 0.84 79 1013.7
20260903182350 26 353 0.0 3.2 0.00 0.86 0.84 79 1013.7
20260903181319 26 349 0.0 1.6 0.00 0.86 0.84 82 1013.8
20260903180341 25 321 0.0 3.2 0.00 0.86 0.84 80 1013.8
20260903175339 25 32 1.6 6.4 0.00 0.86 0.84 81 1013.9
20260903174336 25 345 0.0 4.8 0.00 0.86 0.84 84 1013.9
20260903173330 25 353 0.0 4.8 0.00 0.86 0.84 83 1014.0
20260903172321 25 342 0.0 4.8 0.00 0.86 0.84 83 1014.1
20260903171312 25 334 0.0 3.2 0.00 0.86 0.84 83 1014.1
20260903170351 25 137 0.0 3.2 0.00 0.86 0.84 85 1014.2
20260903165348 24 146 0.0 1.6 0.00 0.86 0.84 85 1014.3
20260903164318 24 302 0.0 1.6 0.00 0.86 0.84 86 1014.2
20260903163340 23 342 0.0 4.8 0.00 0.86 0.84 87 1014.2
20260903162331 23 325 1.6 3.2 0.00 0.86 0.84 86 1014.3
20260903161325 23 77 0.0 3.2 0.00 0.86 0.84 89 1014.6
20260903160317 23 40 0.0 3.2 0.00 0.86 0.84 88 1014.6
20260903155338 22 4 0.0 1.6 0.00 0.86 0.84 89 1014.7
20260903154316 22 203 0.0 3.2 0.00 0.86 0.84 90 1014.7
20260903153334 22 1 0.0 3.2 0.00 0.86 0.84 91 1014.8
20260903152329 22 59 0.0 1.6 0.00 0.86 0.84 93 1014.9
20260903151321 22 59 0.0 3.2 0.00 0.86 0.84 93 1014.9
20260903150315 22 33 0.0 1.6 0.00 0.86 0.84 96 1015.1
20260903145354 21 295 0.0 1.6 0.00 0.86 0.84 96 1015.0
20260903144324 21 164 0.0 1.6 0.00 0.86 0.84 97 1015.0
20260903143319 21 80 0.0 1.6 0.00 0.86 0.84 97 1014.9
20260903142314 21 80 0.0 1.6 0.00 0.86 0.84 97 1014.9
20260903141335 21 80 0.0 1.6 0.00 0.86 0.84 97 1015.1
20260903140350 21 80 0.0 1.6 0.00 0.86 0.84 97 1015.2
20260903135324 21 80 0.0 0.0 0.00 0.86 0.84 98 1015.3
20260903134316 21 78 0.0 0.0 0.00 0.86 0.84 98 1015.3
20260903133338 20 78 0.0 0.0 0.00 0.86 0.84 97 1015.3
20260903132333 20 78 0.0 0.0 0.00 0.86 0.84 98 1015.4
20260903131325 20 78 0.0 1.6 0.00 0.86 0.84 98 1015.5
20260903130321 20 79 0.0 0.0 0.00 0.86 0.84 98 1015.7
20260903125333 20 79 0.0 0.0 0.00 0.86 0.84 98 1015.5
20260903124333 20 79 0.0 1.6 0.00 0.86 0.84 98 1015.6
20260903123328 20 79 0.0 0.0 0.00 0.86 0.84 98 1015.6
20260903122319 20 79 0.0 0.0 0.00 0.86 0.84 98 1015.8
20260903121314 20 79 0.0 0.0 0.00 0.86 0.84 98 1015.9
20260903120350 20 79 0.0 0.0 0.00 0.86 0.84 98 1016.0
20260903115321 20 79 0.0 0.0 0.00 0.86 0.84 98 1016.0
20260903114315 19 79 0.0 0.0 0.00 0.86 0.84 98 1016.2
20260903113333 19 79 0.0 0.0 0.00 0.86 0.84 98 1016.3
20260903112328 19 79 0.0 0.0 0.00 0.86 0.84 98 1016.3
20260903111321 19 79 0.0 0.0 0.00 0.86 0.84 98 1016.1